[[{"header":{"parameterUnit":"m.s-1","parameterCategory":1,"la1":30.2991,"la2":30.254,"lo1":-89.0895,"lo2":-89.0444,"dy":0.0017,"dx":0.0017,"nx":28,"ny":28,"refTime":"2024-05-09T03:00:00:Z","depth":0,"parameterNumber":2,"parameterNumberName":"U-component_of_WINDS"},"data":[0,0,0,0,0,0,0,0,0,0,0,0,0,0,0,0,0,0,0,0,0,0,0,0,0,0,0,0,0,0,0,0,0,0,0,0,0,0,0,0,0,0,0,0,0,0,0,0,0,0,0,0,0,0,0,0,0,0,3.0948,3.0949,0,3.1046,3.1047,3.1048,3.1012,3.101,3.1007,3.1005,3.1108,3.1113,3.1117,0,0,0,0,0,0,0,0,0,0,0,0,0,3.0731,3.0735,3.0948,3.095,3.0951,3.1046,3.1047,3.1049,3.1012,3.101,3.1007,3.1004,3.1106,3.1112,3.1118,0,0,0,0,0,0,0,0,0,0,0,0,0,3.0827,3.0737,3.0948,3.0944,3.0945,3.1046,3.1047,3.1049,3.1013,3.101,3.1006,3.1003,3.1104,3.1111,3.1119,3.123,0,0,3.1141,3.1144,0,0,0,0,0,0,0,0,3.0821,3.0835,3.0943,3.0945,3.0945,3.1013,3.1008,3.111,3.1014,3.0987,3.1005,3.1001,3.1079,3.1088,3.1114,3.1235,3.1239,3.1141,3.1146,3.1149,3.1151,0,0,0,0,0,0,0,3.0815,3.083,3.0987,3.0945,3.0946,3.0938,3.0948,3.1027,3.1051,3.0989,3.0987,3.0999,3.1079,3.1107,3.1116,3.1241,3.1141,3.1147,3.1152,3.1155,3.1455,3.1458,0,0,0,0,0,0,3.0808,3.0825,3.0984,3.099,3.0874,3.0944,3.0955,3.0995,3.105,3.1055,3.1001,3.0997,3.1097,3.1108,3.112,3.1252,3.1149,3.1155,3.1159,3.1451,3.1456,3.146,0,0,0,0,0,0,3.0803,3.0822,3.098,3.0907,3.0926,3.0952,3.0996,3.0999,3.1027,3.1059,3.1063,3.1026,3.1094,3.111,3.1202,3.1255,3.1159,3.1165,3.1447,3.1453,3.1458,3.1518,0,0,0,0,0,0,3.0797,3.0821,3.0863,3.0908,3.093,3.1061,3.1,3.1003,3.1039,3.1033,3.1083,3.1088,3.1093,3.1191,3.1209,3.1263,3.1171,3.1442,3.1449,3.1456,3.1511,3.1524,3.1536,0,0,0,0,0,3.0789,3.0877,3.0866,3.0885,3.0984,3.1064,3.1076,3.108,3.1043,3.1086,3.1106,3.1086,3.1246,3.1201,3.1221,3.1278,3.1439,3.1447,3.1455,3.1505,3.1522,3.1536,0,0,0,0,0,0,3.0839,3.0883,3.0871,3.0976,3.1016,3.1057,3.1112,3.1097,3.115,3.1143,3.1145,3.1157,3.1251,3.1274,3.1223,3.1387,3.1337,3.135,3.1368,3.1384,3.1397,3.1389,3.1177,0,0,0,0,0,3.0862,3.0923,3.0958,3.1048,3.1068,3.1087,3.1122,3.112,3.1163,3.118,3.1207,3.1249,3.1309,3.1348,3.1405,3.1514,3.1524,3.1563,3.1575,3.1586,3.1596,3.1653,3.1671,3.1487,3.1487,3.1486,0,0,3.0911,3.0942,3.0981,3.1058,3.109,3.1152,3.1101,3.117,3.1216,3.1191,3.1278,3.13,3.1347,3.1448,3.1494,3.147,3.1649,3.1596,3.1604,3.1609,3.1664,3.1681,3.1696,3.1492,3.1491,3.149,0,0,3.1031,3.1062,3.1138,3.117,3.1217,3.1228,3.1247,3.129,3.1303,3.1391,3.1372,3.1427,3.1531,3.1564,3.1595,3.1725,3.1708,3.1744,3.1809,3.1865,3.1879,3.1892,3.1937,3.1953,3.1755,3.1755,3.1755,0,3.1085,3.1178,3.1179,3.1249,3.1283,3.1261,3.1338,3.1369,3.1433,3.1457,3.1429,3.1556,3.1587,3.1694,3.1725,3.1752,3.1772,3.1738,3.1877,3.189,3.1902,3.1944,3.1961,3.1759,3.1758,3.1758,3.1758,0,3.1242,3.1307,3.1363,3.1423,3.1464,3.1537,3.1549,3.159,3.1585,3.1599,3.1688,3.1724,3.1786,3.1812,3.1809,3.1918,3.1901,3.1876,3.1825,3.1923,3.1963,3.198,3.1764,3.1763,3.1762,3.1761,0,0,3.1396,3.1455,3.1475,3.1501,3.1551,3.1601,3.1673,3.1733,3.1767,3.1812,3.1871,3.1958,3.1933,3.1968,3.1968,3.2018,3.2116,3.1985,3.1986,3.2007,3.2237,3.2254,3.2273,3.2105,3.2108,3.2111,3.2232,0,3.1518,3.1643,3.1645,3.176,3.1819,3.1798,3.186,3.1898,3.1912,3.1965,3.1981,3.2042,3.2006,3.2026,3.2074,3.2094,3.2162,3.2086,3.216,3.2162,3.2147,3.2295,3.2314,3.2427,3.2248,3.225,3.2252,0,3.1678,3.1725,3.1845,3.1884,3.1909,3.1965,3.2019,3.2069,3.2111,3.2118,3.2156,3.2148,3.2221,3.2169,3.2268,3.2216,3.2246,3.2261,3.2265,3.2271,3.2212,3.2303,3.2463,3.2479,3.2277,3.2275,3.2274,0,3.1775,3.187,3.1953,3.1976,3.2025,3.2064,3.2086,3.2124,3.2159,3.2207,3.2229,3.2286,3.2316,3.2359,3.2366,3.2328,3.2465,3.2415,3.2472,3.2472,3.2501,3.2499,3.2667,3.2524,3.2524,3.2524,3.2523,0,3.191,3.1984,3.1997,3.2048,3.213,3.2132,3.2212,3.2232,3.2265,3.2319,3.2306,3.2357,3.2364,3.2417,3.2424,3.2504,3.2518,3.2526,3.2526,3.2526,3.2525,3.2545,3.2536,3.2528,3.2527,3.2526,3.2525,0,3.2032,3.2045,3.2133,3.2172,3.2183,3.2241,3.2273,3.2322,3.2335,3.2404,3.242,3.2441,3.2502,3.2514,3.2587,3.2591,3.2686,3.2679,3.2671,3.267,3.2726,3.272,3.2911,3.2935,3.2779,3.278,3.2782,0,3.2117,3.2173,3.2216,3.2251,3.2274,3.2331,3.2366,3.237,3.2408,3.2458,3.25,3.256,3.2607,3.2706,3.2728,3.2783,3.2777,3.284,3.2785,3.2782,3.2775,3.2771,3.2776,3.285,3.2852,3.2853,3.2855,0,3.2265,3.2267,3.2318,3.2371,3.2413,3.2455,3.2495,3.2524,3.2534,3.2576,3.2638,3.2675,3.2748,3.2807,3.2862,3.2885,3.2871,3.2872,3.2888,3.2887,3.2879,3.2882,3.2698,3.2867,3.2866,3.2865,3.2864,3.2864,3.2369,3.2417,3.2454,3.2511,3.2541,3.2578,3.2625,3.2643,3.2694,3.2753,3.2753,3.282,3.2859,3.2931,3.2957,3.3009,3.2989,3.3013,3.3019,3.3024,3.3028,3.2872,3.302,3.3019,3.3019,3.3019,3.3019,0,3.2514,3.2537,3.2589,3.2644,3.2689,3.2671,3.2714,3.2752,3.2811,3.2848,3.2895,3.2965,3.3021,3.3047,3.3103,3.3139,3.3134,3.3154,3.315,3.3155,3.3044,3.3024,3.3157,3.3157,3.3157,3.3157,3.3157,3.3157,3.2595,3.2674,3.2681,3.2774,3.2797,3.2861,3.2887,3.2921,3.295,3.3028,3.3075,3.3091,3.3123,3.318,3.3231,3.3237,3.3257,3.3279,3.3282,3.3177,3.3163,3.315,3.3131,3.3284,3.3284,3.3389,3.339,3.339]},{"header":{"parameterUnit":"m.s-1","parameterCategory":1,"la1":30.2991,"la2":30.254,"lo1":-89.0895,"lo2":-89.0444,"dy":0.0017,"dx":0.0017,"nx":28,"ny":28,"refTime":"2024-05-09T03:00:00:Z","depth":0,"parameterNumber":3,"parameterNumberName":"V-component_of_WINDS"},"data":[0,0,0,0,0,0,0,0,0,0,0,0,0,0,0,0,0,0,0,0,0,0,0,0,0,0,0,0,0,0,0,0,0,0,0,0,0,0,0,0,0,0,0,0,0,0,0,0,0,0,0,0,0,0,0,0,0,0,6.7308,6.731,0,6.7467,6.7468,6.747,6.7449,6.7447,6.7444,6.7442,6.7597,6.7603,6.761,0,0,0,0,0,0,0,0,0,0,0,0,0,6.698,6.6986,6.7308,6.731,6.7312,6.7466,6.7469,6.7471,6.745,6.7447,6.7444,6.7441,6.7595,6.7602,6.761,0,0,0,0,0,0,0,0,0,0,0,0,0,6.7129,6.6988,6.7308,6.7321,6.7323,6.7466,6.7469,6.7471,6.7451,6.7447,6.7443,6.7439,6.7592,6.7602,6.7611,6.7749,0,0,6.7641,6.7645,0,0,0,0,0,0,0,0,6.712,6.7141,6.7317,6.732,6.7323,6.7435,6.741,6.7564,6.7452,6.7402,6.7442,6.7437,6.7545,6.7559,6.7597,6.7756,6.7763,6.7642,6.7648,6.7652,6.7655,0,0,0,0,0,0,0,6.711,6.7134,6.7371,6.7319,6.7323,6.7316,6.7333,6.7439,6.7493,6.7406,6.7405,6.7424,6.7546,6.7587,6.76,6.7765,6.7642,6.7651,6.7657,6.766,6.8044,6.8048,0,0,0,0,0,0,6.7097,6.7125,6.7366,6.7375,6.721,6.7325,6.7344,6.7403,6.7492,6.7502,6.7428,6.7423,6.7573,6.7589,6.7606,6.7772,6.7652,6.7661,6.7667,6.804,6.8045,6.805,0,0,0,0,0,0,6.709,6.7119,6.7359,6.725,6.728,6.7335,6.7401,6.7408,6.7449,6.7509,6.7517,6.746,6.757,6.7592,6.7714,6.7777,6.7666,6.7675,6.8035,6.8041,6.8047,6.8106,0,0,0,0,0,0,6.7081,6.7117,6.7172,6.7252,6.7286,6.7467,6.7405,6.7414,6.7467,6.7462,6.7541,6.7551,6.7569,6.7699,6.7724,6.7789,6.7682,6.8029,6.8038,6.8045,6.8099,6.8114,6.8127,0,0,0,0,0,6.7069,6.7181,6.7174,6.7204,6.7356,6.7471,6.749,6.7511,6.7472,6.7526,6.7564,6.7548,6.7766,6.7712,6.7739,6.7808,6.8025,6.8035,6.8045,6.8093,6.8111,6.8127,0,0,0,0,0,0,6.7104,6.7191,6.7185,6.7326,6.7392,6.7467,6.7537,6.753,6.7606,6.7599,6.7619,6.7637,6.776,6.7796,6.7734,6.7945,6.789,6.7906,6.7917,6.7935,6.7949,6.7937,6.769,0,0,0,0,0,6.7129,6.7217,6.7287,6.7405,6.7438,6.7482,6.7532,6.7543,6.7611,6.7637,6.7684,6.7748,6.7831,6.7885,6.7965,6.8104,6.812,6.8165,6.8178,6.819,6.8203,6.8277,6.8297,6.8081,6.8081,6.8081,0,0,6.7179,6.7238,6.7292,6.7413,6.7465,6.7553,6.7505,6.7601,6.7666,6.7651,6.777,6.7806,6.7879,6.801,6.8069,6.8043,6.8266,6.8202,6.8211,6.8217,6.8289,6.8309,6.8328,6.8088,6.8087,6.8086,0,0,6.7316,6.7371,6.7474,6.7527,6.7607,6.7636,6.766,6.7737,6.7762,6.7881,6.7872,6.7948,6.8091,6.8143,6.8187,6.8344,6.8331,6.8369,6.8442,6.8514,6.8531,6.8546,6.86,6.862,6.8382,6.8382,6.8382,0,6.7369,6.7504,6.7527,6.7625,6.7677,6.767,6.7773,6.7823,6.7924,6.7959,6.7929,6.8108,6.8156,6.8298,6.8336,6.8374,6.84,6.836,6.8527,6.8543,6.8557,6.8609,6.8629,6.8386,6.8385,6.8385,6.8385,0,6.7564,6.7658,6.7731,6.7831,6.7892,6.7992,6.8027,6.8085,6.809,6.8121,6.8242,6.8299,6.839,6.8425,6.843,6.8567,6.8549,6.8523,6.8468,6.8581,6.863,6.865,6.8392,6.839,6.8389,6.8388,0,0,6.7727,6.7839,6.7865,6.791,6.7998,6.8069,6.8167,6.8259,6.8307,6.8377,6.8458,6.8579,6.8556,6.8607,6.8617,6.8681,6.8799,6.8647,6.8649,6.8672,6.8952,6.897,6.8993,6.8792,6.8795,6.8799,6.8945,0,6.7872,6.8049,6.8072,6.8228,6.8313,6.8308,6.8393,6.8454,6.8485,6.856,6.8593,6.8678,6.8642,6.8672,6.8735,6.8772,6.8855,6.8761,6.8865,6.8868,6.8846,6.9019,6.9039,6.9175,6.8965,6.8968,6.8971,0,6.8065,6.8142,6.8307,6.8382,6.8419,6.8496,6.858,6.8653,6.8721,6.8739,6.8796,6.8799,6.8897,6.8839,6.8974,6.8909,6.8952,6.8977,6.8982,6.8992,6.8926,6.9032,6.9219,6.9239,6.9001,6.8999,6.8997,0,6.8166,6.8311,6.8428,6.8467,6.8558,6.8611,6.8651,6.8716,6.8769,6.8842,6.8876,6.8958,6.9003,6.9066,6.9089,6.9045,6.9222,6.9166,6.9238,6.9237,6.9274,6.9272,6.947,6.9304,6.9304,6.9304,6.9303,0,6.8325,6.8426,6.8475,6.8547,6.8659,6.8683,6.8792,6.8829,6.8887,6.8964,6.8963,6.9034,6.9062,6.9137,6.9156,6.9263,6.9284,6.9299,6.9302,6.9299,6.9297,6.9327,6.9317,6.9309,6.9308,6.9307,6.9306,0,6.8457,6.8494,6.8621,6.8697,6.8719,6.8797,6.8861,6.8929,6.8959,6.9056,6.908,6.9127,6.9215,6.9245,6.9352,6.9364,6.9489,6.9485,6.9467,6.9467,6.9537,6.9529,6.976,6.9791,6.9606,6.9608,6.9609,0,6.8556,6.8633,6.8718,6.8771,6.8813,6.8898,6.8952,6.8978,6.9034,6.9118,6.9175,6.9264,6.9336,6.9477,6.9518,6.9599,6.9596,6.9672,6.9608,6.9601,6.9596,6.959,6.9597,6.9683,6.9685,6.9686,6.9688,0,6.8726,6.8741,6.8821,6.8908,6.8973,6.9042,6.9108,6.915,6.9185,6.9248,6.934,6.9396,6.9506,6.9592,6.9675,6.9713,6.9706,6.9708,6.9728,6.9724,6.971,6.9718,6.9498,6.9702,6.97,6.9699,6.9699,6.9698,6.8844,6.8912,6.8982,6.9071,6.9124,6.9186,6.9254,6.9293,6.9371,6.9464,6.9473,6.9572,6.9636,6.9747,6.9788,6.9864,6.9842,6.9872,6.988,6.9886,6.9891,6.97,6.9879,6.9878,6.9878,6.9878,6.9877,0,6.9013,6.9058,6.914,6.9234,6.9303,6.9293,6.9365,6.9423,6.951,6.9572,6.9644,6.9748,6.9832,6.988,6.9964,7.0014,7.0013,7.0035,7.0031,7.004,6.9906,6.988,7.0035,7.0035,7.0035,7.0035,7.0035,7.0035,6.9109,6.9224,6.9247,6.9387,6.9431,6.9529,6.9571,6.9627,6.9677,6.9794,6.9865,6.9897,6.9953,7.004,7.0116,7.0127,7.0157,7.0182,7.0191,7.0065,7.0049,7.0034,7.0009,7.0188,7.0189,7.0318,7.0319,7.032]}]]